Flag for U.S.A. Weather past 2 weeks in Jackson, Mississippi, U.S.A.

Now
86 °F

Sunny.


Feels Like: 84 °F
Forecast: 60 / 87 °F
Wind: 7 mph from North

Location: Hawkins Field

Current Time: Aug 27, 2015 at 2:50:02 PM

Latest Report: Aug 27, 2015 at 1:53 PM


Visibility: 10 mi

Pressure: 30.01 "Hg

Humidity: 35%

Dew point: 55 °F

Location of JacksonLocation

Historic Weather in Jackson — Graph

°F

Jackson temperature yesterday

Maximum temperature yesterday: 87 °F (at 1:53 PM)
Minimum temperature yesterday: 62 °F (at 6:53 AM)
Average temperature yesterday: 76 °F

Past Weeks' High & Low Weather Summary

 TemperatureHumidityPressure
High97 °F (Aug 15, 2:53 PM)97% (Aug 21, 3:00 AM)30.11 "Hg (Aug 21, 3:00 AM)
Low59 °F (Aug 27, 5:53 AM)24% (Aug 26, 3:53 PM)29.86 "Hg (Aug 18, 7:53 PM)
Average80 °F64%29.99 "Hg
* Reported Aug 12 1:53 PM — Aug 27 1:53 PM, Jackson, Weather by CustomWeather, © 2015

Note: Actual official high and low records may vary slightly from our data, if they occured in-between our weather recording intervals... More about our weather records

Advertising

Jackson weather history for previous 24 hours

 ConditionsComfort  
Time TempWeatherWind HumidityBarometerVisibility
1:53 PM
Thu, Aug 27
86 °FSunny.7 mph35%30.01 "Hg10 mi
12:53 PM84 °FSunny.12 mph36%30.01 "Hg10 mi
11:53 AM82 °FSunny.6 mph37%30.04 "Hg10 mi
10:53 AM81 °FSunny.5 mph39%30.05 "Hg10 mi
9:53 AM78 °FSunny.8 mph48%30.05 "Hg10 mi
8:53 AM73 °FSunny.3 mph55%30.06 "Hg10 mi
7:53 AM64 °FSunny.3 mph78%30.05 "Hg10 mi
6:53 AM59 °FClear.3 mph87%30.04 "Hg10 mi
5:53 AM59 °FClear.5 mph84%30.04 "Hg10 mi
4:53 AM61 °FClear.6 mph78%30.03 "Hg10 mi
3:53 AM62 °FClear.No wind75%30.03 "Hg10 mi
2:53 AM66 °FClear.3 mph63%30.03 "Hg10 mi
1:53 AM66 °FClear.No wind65%30.02 "Hg10 mi
12:53 AM69 °FClear.3 mph55%30.03 "Hg10 mi
11:53 PM
Wed, Aug 26
72 °FClear.3 mph49%30.03 "Hg10 mi
10:53 PM72 °FClear.No wind49%30.03 "Hg10 mi
9:53 PM74 °FClear.6 mph45%30.03 "Hg10 mi
8:53 PM76 °FClear.5 mph40%30.02 "Hg10 mi
7:53 PM79 °FSunny.5 mph34%30.01 "Hg10 mi
6:53 PM83 °FSunny.9 mph28%30.01 "Hg10 mi
5:53 PM86 °FSunny.9 mph27%30.01 "Hg10 mi
4:53 PM87 °FSunny.10 mph24%30.01 "Hg10 mi
3:53 PM87 °FSunny.10 mph24%30.02 "Hg10 mi
2:53 PM87 °FSunny.10 mph26%30.03 "Hg10 mi
Weather by CustomWeather, © 2015

See weather overviewHow to use our weather pages